Regional Weather Roundup
Issued by NWS Green Bay, WI

Home | Current Version | Previous Version | Text Only | Print | Product List | Glossary On
Versions: 1 2 3 4 5 6 7 8 9 10 11 12 13 14 15 16 17 18 19 20 21 22 23 24 25 26 27 28 29 30 31 32 33 34 35 36 37 38 39 40 41 42 43 44 45 46 47 48 49 50
000
ASUS43 KGRB 100711
RWRGRB

NORTH-CENTRAL AND NORTHEAST WISCONSIN REGIONAL WEATHER ROUNDUP
NATIONAL WEATHER SERVICE GREEN BAY WI
100 AM CST WED FEB 10 2016

WIZ005-009-010>012-018-019-100800-
NORTH CENTRAL WISCONSIN

CITY           SKY/WX    TMP DP  RH WIND       PRES   REMARKS
IRONWOOD       CLOUDY     7   1  78 NW8       29.96S WCI  -6
MANITOWISH WTR FLURRIES   4   0  83 NW5       29.92S WCI  -6
ARBOR VITAE    MOCLDY     6   0  75 N8        29.92S WCI  -7
EAGLE RIVER    CLOUDY     5  -3  68 N14G20    29.90S WCI -12
LAND O LAKES   CLOUDY     5  -1  77 N9G17     29.91S WCI  -9
RHINELANDER    CLOUDY     6  -5  60 N8G17     29.91S WCI  -7
PHILLIPS       CLOUDY     3  -2  78 NW5       29.96S WCI  -6
ANTIGO         CLOUDY     7  -2  68 N10       29.90S WCI  -8
TOMAHAWK       CLOUDY     6   1  76 NW7       29.94S WCI  -5
MERRILL        CLOUDY     8   1  74 NW7       29.95S WCI  -4
$$

WIZ013-073-100800-
NORTHEAST WISCONSIN

CITY           SKY/WX    TMP DP  RH WIND       PRES   REMARKS
IRON MOUNTAIN  LGT SNOW   7   0  73 N12       29.89S WCI  -8
MARINETTE      CLEAR      9  -2  61 NW14G20   29.91S WCI  -8
OCONTO         PTCLDY    10  -2  59 NW7       29.94S WCI  -2
$$

WIZ017-030-035>037-045-100800-
CENTRAL WISCONSIN

CITY           SKY/WX    TMP DP  RH WIND       PRES   REMARKS
MEDFORD        CLOUDY     5  -2  73 NW8       29.95S WCI  -8
WAUSAU         CLOUDY    10   0  63 NW7       29.94S WCI  -1
MOSINEE        CLOUDY     9   1  72 NW8       29.96S WCI  -4
MARSHFIELD     MOCLDY     7  -4  60 NW13      29.96F WCI  -9
WISC RAPIDS    CLOUDY    10  -2  58 N12G21    29.99F WCI  -5
STEVENS POINT  CLOUDY     8  -2  62 NW7       29.96F WCI  -3
WAUPACA        CLOUDY    13   2  60 NW9       29.97F WCI   1
SHAWANO        CLOUDY    13   3  62 NW7       29.95F WCI   3
CLINTONVILLE   CLOUDY    12  -2  52 N9        29.96S WCI   0
WAUTOMA        CLOUDY    11   0  61 NW8       29.99F WCI  -1
$$

WIZ038-039-048-051-100800-
FOX VALLEY

CITY           SKY/WX    TMP DP  RH WIND       PRES   REMARKS
NWS GREEN BAY  CLEAR      9  -2  61 NW13      29.94S WCI  -7
APPLETON       CLOUDY    12  -2  52 NW13      29.92S WCI  -3
OSHKOSH        PTCLDY    11   0  61 NW9       29.94S WCI  -2
FOND DU LAC    MOCLDY    10   1  67 NW8       29.95S WCI  -2
$$

WIZ022-050-052-100800-
EAST CENTRAL WISCONSIN

CITY           SKY/WX    TMP DP  RH WIND       PRES   REMARKS
EPHRAIM        CLOUDY    10   0  61 NW18G25   29.86S WCI  -8
STURGEON BAY   CLOUDY    10  -2  56 NW16G24   29.91S WCI  -7
MANITOWOC      PTCLDY    11   0  61 NW16G24   29.92R WCI  -6
SHEBOYGAN      PTCLDY    11  -1  58 NW12      29.92R WCI  -3
$$

LMZ563-521-522-541>543-100800-
LAKESHORE

STATION/POSITION TIME  TEMP    WIND        PRES    VSBY  WAVE
                       AIR SEA DIR/SP/G                  HT/PER
                 (UTC) (F)     (DEG/KT/KT) (MB)    (MI)  (FT/S)
SHEBOYGAN LKSHOR 0700   13     310/ 16/ 21 1014.7R
KEWAUNEE LKSHORE 0600   12     350/ 14/ 18 1011.7S
ALGOMA MARINA    0641          320/ 18/ 24   N/A
CHAMBERS ISLAND  0600   12     310/ 21/ 28 1011.9F
MENOMINEE LKSHOR 0600   11     300/ 13     1011.7R
$$



USA.gov is the U.S. government's official web portal to all federal, state and local government web resources and services.